Regional Weather Roundup
Issued by NWS

Home | Current Version | Previous Version | Text Only | Print | Product List | Glossary On
Versions: 1 2 3 4 5 6 7 8 9 10 11 12 13 14 15 16 17 18 19 20 21 22 23 24 25 26 27 28 29 30 31 32 33 34 35 36 37 38 39 40 41 42 43 44 45 46 47 48 49 50
000
ASUS43 KDMX 110107
RWRIA

WEATHER ROUNDUP FOR IOWA
NATIONAL WEATHER SERVICE DES MOINES IA
800 PM CDT THU JUL 10 2014

NOTE: "FAIR" INDICATES FEW OR NO CLOUDS BELOW 12,000 FEET WITH NO
SIGNIFICANT WEATHER AND/OR OBSTRUCTIONS TO VISIBILITY.

* - THESE STATIONS ARE NOT NWS STATIONS...THUS NOT UNDER NWS
QUALITY CONTROL.  THEY ALSO DO NOT REPORT WEATHER SUCH
AS PRECIPITATION OR FOG.

IAZ001>003-012>014-020>022-031>034-043>046-110200-
   NORTHWEST IOWA

CITY           SKY/WX    TMP DP  RH WIND       PRES   REMARKS
CARROLL *      CLEAR     75  61  60 SE10      30.02S
CHEROKEE *     CLOUDY    77  66  69 S12       29.98R
DENISON *      CLEAR     77  64  65 S10G21    29.99R
LE MARS *      CLEAR     81  66  61 SE12G22   29.95S HX  83
ORANGE CITY *  CLEAR     79  63  57 S13G21    29.95S HX  80
SHELDON *      PTCLDY    77  64  65 S17G23    29.95S
SIOUX CITY     PTCLDY    80  66  62 S12       29.93S HX  82
SPENCER        LGT RAIN  73  67  81 S12       29.99R
STORM LAKE *   CLEAR     75  66  73 S13       30.01R
$$

IAZ055>058-069>071-079>083-090>094-110200-
   SOUTHWEST IOWA

CITY           SKY/WX    TMP DP  RH WIND       PRES   REMARKS
ATLANTIC *     CLEAR     79  64  61 S9G16     30.01R HX  81
AUDUBON *      CLEAR     79  66  65 SE8       30.04R HX  81
CLARINDA *     CLEAR     79  66  65 SE6       30.03F HX  81
COUNCIL BLFS * CLEAR     79  68  69 SE16G22   29.98S HX  81
CRESTON *      CLEAR     73  61  64 SE9       30.05F
HARLAN  *      CLEAR     77  66  69 SE10G17   30.04S
LAMONI         CLEAR     75  60  59 SE7       30.06R
RED OAK *      CLEAR     79  66  65 SE12G17   30.01S HX  81
SHENANDOAH *   CLEAR     79  68  69 SE13G20   30.00F HX  81
$$

IAZ047>049-059>061-072>074-084-110200-
   CENTRAL IOWA

CITY           SKY/WX    TMP DP  RH WIND       PRES   REMARKS
AMES           MOCLDY    75  61  61 S7        30.05R
ANKENY *       CLEAR     75  61  60 SE8       30.05S
CHARITON *     CLEAR     75  61  60 SE8       30.07R
DES MOINES     MOCLDY    78  59  51 S12       30.04S
GRINNELL*      PTCLDY    73  59  60 SE6       30.08S
KNOXVILLE *    CLEAR     75  61  60 SE7       30.06S
MARSHALLTOWN   MOCLDY    74  61  63 SE7       30.06S
PELLA *        PTCLDY    75  59  57 SE6       30.08S
PERRY *          N/A     75  63  64 SE10      30.04S
$$

IAZ004>006-015-016-023>025-035-036-110200-
   NORTH CENTRAL IOWA

CITY           SKY/WX    TMP DP  RH WIND       PRES   REMARKS
ALGONA *       CLEAR     77  61  57 S14       30.03R
CLARION *      CLEAR     75  59  57 S12       30.05R
ESTHERVILLE    CLOUDY    76  62  62 S15       30.00R
FORT DODGE *   CLOUDY    75  61  60 S9        30.03S
MASON CITY     CLOUDY    74  61  63 S8        30.07R
FOREST CITY *  CLEAR     73  59  60 S9        30.04S
IOWA FALLS *     N/A     73  61  64 S6        30.08R
$$

IAZ007>011-017>019-026>030-037>042-050>054-066-110200-
   NORTHEAST IOWA

CITY           SKY/WX    TMP DP  RH WIND       PRES   REMARKS
CEDAR RAPIDS   MOCLDY    73  60  63 S6        30.09R
CHARLES CITY * CLEAR     75  59  57 S8G15     30.07S
CLINTON *      CLEAR     73  63  68 S6        30.14R
DECORAH *        N/A    N/A N/A N/A MISG        N/A
DUBUQUE        PTCLDY    72  63  73 S7        30.11S
MONTICELLO *   CLEAR     72  63  73 S5        30.10R
OELWEIN *      CLEAR     73  72  94 S7        30.09S
WATERLOO       MOCLDY    76  59  55 S10       30.06S
$$

IAZ064-065-067-068-078-110200-
   EAST CENTRAL IOWA

CITY           SKY/WX    TMP DP  RH WIND       PRES   REMARKS
DAVENPORT      PTCLDY    72  60  66 S6        30.11S
IOWA CITY      MOCLDY    75  61  61 S6        30.11R
MT. PLEASANT * PTCLDY    75  59  57 SE5       30.10S
MUSCATINE *    CLEAR     75  61  60 S3        30.10S
QUAD CITIES    CLEAR     74  62  66 S3        30.10R
$$

IAZ062-063-075>077-085>089-095>099-110200-
   SOUTHEAST IOWA

CITY           SKY/WX    TMP DP  RH WIND       PRES   REMARKS
BURLINGTON     CLEAR     75  60  59 S5        30.10R
FAIRFIELD *    CLEAR     75  59  57 S5        30.10R
FORT MADISON * CLEAR     75  59  57 SE3       30.12R
KEOKUK *       CLEAR     75  59  57 SE3       30.09S
OSKALOOSA *      N/A     73  61  64 SE8       30.09S
CENTERVILLE *  CLEAR     73  64  73 SE3       30.10S
OTTUMWA        PTCLDY    72  56  57 SE7       30.08S
WASHINGTON *   CLEAR     73  61  64 S6        30.10S
$$

ABBREVIATIONS USED IN REMARKS
   TC - TEMPERATURES IN CELSIUS
  WCI - WIND CHILL INDEX
   HX - HEAT INDEX
  VSB - VISIBILITY
$$




USA.gov is the U.S. government's official web portal to all federal, state and local government web resources and services.